Карточка аэропорта UNWW

Внимание!
Информация на этой странице в стадии наполнения.
Если вы не увидели какой-то информации, или заметили неточность - пожалуйста сообщите нам!
Спасибо!
Команда RU-STAFF
Название аэропортаСпиченково
Название аэропорта (англ.)Spichenkovo
Превышение1023 ft. (311.8 m.)
Координаты53°48.714', 86°52.704'
Высота перехода800m
Эшелон переходаFL050
Коды ответчика5270-5277
Зона ОрВДНовосибирск РПИ (UNNT)
Данные METARUNWW 290400Z 07001MPS 4100 BR FU NSC M26/M30 Q1051 R19/410250 NOSIG RMK QFE761
Проноз погоды (TAF)UNWW 290200Z 2903/3003 19003MPS 6000 NSC TEMPO 2903/3003 1500 BR FU
NOTAMshow/hide NOTAM
AWOS   TABLE

Информация о ВПП

ВПП Длина ВПП (м.) Покрытие Курс ВПП Частота ILS
012679Цементобетон14 
192679Цементобетон194111.1

Диспетчерские позиции

Позывной Наименование органа УВД Частота
UNWW_TWRНовокузнецк-Старт121.2
UNWW_APPНовокузнецк-Подход118.6



Спутниковое изображение